Iowa Falls, IA

8:31 AM CDT on October 18, 2017 (GMT -0500)
Iowa Falls Municipal

Weather History for KIFA - July, 2013

Change the Weather History Date:

Friday, July 5, 2013

  Actual Average Record
Temperature  
Mean Temperature 73 °F -  
Max Temperature 86 °F 85 °F 100 °F (1977)
Min Temperature 60 °F 60 °F 45 °F (1960)
Cooling Degree Days 8    
Growing Degree Days 23 (Base 50)    
Moisture  
Dew Point 59 °F    
Average Humidity 61    
Maximum Humidity 87    
Minimum Humidity 38    
Precipitation  
Precipitation 0.00 in - - ()
Sea Level Pressure  
Sea Level Pressure 29.97 in    
Wind  
Wind Speed 10 mph (SSE)    
Max Wind Speed 21 mph    
Max Gust Speed 28 mph    
Visibility 10 miles    
Events      
Averages and records for this station are not official NWS values.
T = Trace of Precipitation, MM = Missing Value Source: NWS Daily Summary

Daily Weather History Graph

Daily Weather History Graph

Search for Another Location

Airport or City:

Trip Planner

Search our weather history database for the weather conditions in past years. The results will help you decide how hot, cold, wet, or windy it might be!

Date:

Astronomy

Jul. 05, 2013 Rise Set
Actual Time 5:42 AM CDT 8:53 PM CDT
Civil Twilight 5:07 AM CDT 9:27 PM CDT
Nautical Twilight 4:23 AM CDT 10:11 PM CDT
Astronomical Twilight 3:29 AM CDT 11:04 PM CDT
Moon 3:43 AM CDT (7/5) 6:47 PM CDT (7/5)
Length of Visible Light 16h 19m
Length of Day
15h 10m
Waning Crescent, 6% of the Moon is Illuminated
Jul 5
Waning Crescent
Jul 8
New
Jul 15
First Quarter
Jul 22
Full
Jul 29
Last Quarter

Hourly Weather History & Observations

Time (CDT) Temp. Heat Index Dew Point Humidity Pressure Visibility Wind Dir Wind Speed Gust Speed Precip Events Conditions
12:15 AM 68.0 °F - 57.2 °F 68% 30.00 in 10.0 mi SSE 9.2 mph - N/A   Clear
12:35 AM 66.4 °F - 57.4 °F 73% 30.00 in 10.0 mi SE 6.9 mph - N/A   Clear
12:55 AM 66.2 °F - 57.4 °F 73% 30.00 in 10.0 mi SE 5.8 mph - N/A   Clear
1:15 AM 64.6 °F - 57.4 °F 77% 30.00 in 10.0 mi SE 5.8 mph - N/A   Clear
1:35 AM 64.4 °F - 57.2 °F 77% 29.99 in 10.0 mi SSE 8.1 mph - N/A   Clear
1:55 AM 63.5 °F - 57.2 °F 80% 29.99 in 10.0 mi SE 6.9 mph - N/A   Clear
2:15 AM 63.0 °F - 57.2 °F 81% 29.99 in 10.0 mi SSE 6.9 mph - N/A   Clear
2:35 AM 62.8 °F - 57.0 °F 81% 29.99 in 10.0 mi SSE 6.9 mph - N/A   Clear
2:55 AM 62.8 °F - 57.2 °F 82% 29.99 in 10.0 mi SSE 8.1 mph - N/A   Clear
3:15 AM 62.2 °F - 57.0 °F 83% 29.99 in 10.0 mi SSE 6.9 mph - N/A   Clear
3:35 AM 63.5 °F - 57.2 °F 80% 29.99 in 10.0 mi SSE 6.9 mph - N/A   Clear
3:55 AM 63.7 °F - 57.2 °F 79% 29.99 in 10.0 mi SSE 5.8 mph - N/A   Clear
4:15 AM 62.1 °F - 57.0 °F 84% 30.00 in 10.0 mi SSE 5.8 mph - N/A   Clear
4:35 AM 61.7 °F - 57.0 °F 85% 30.00 in 10.0 mi South 5.8 mph - N/A   Clear
4:55 AM 61.0 °F - 56.7 °F 86% 30.00 in 10.0 mi SSE 5.8 mph - N/A   Clear
5:15 AM 61.2 °F - 56.7 °F 85% 30.00 in 10.0 mi SE 4.6 mph - N/A   Clear
5:35 AM 60.6 °F - 56.1 °F 85% 30.00 in 10.0 mi SE 4.6 mph - N/A   Clear
5:55 AM 60.3 °F - 56.3 °F 87% 30.00 in 10.0 mi SSE 4.6 mph - N/A   Clear
6:15 AM 60.6 °F - 56.3 °F 86% 29.99 in 10.0 mi SSE 6.9 mph - N/A   Clear
6:35 AM 61.9 °F - 56.7 °F 83% 29.99 in 10.0 mi SSE 6.9 mph - N/A   Clear
6:55 AM 63.7 °F - 57.0 °F 79% 30.00 in 10.0 mi SSE 6.9 mph - N/A   Clear
7:15 AM 65.1 °F - 57.7 °F 77% 30.00 in 10.0 mi SSE 8.1 mph - N/A   Clear
7:35 AM 66.4 °F - 58.3 °F 75% 30.00 in 10.0 mi SSE 8.1 mph - N/A   Clear
7:55 AM 68.0 °F - 58.3 °F 71% 30.01 in 10.0 mi South 8.1 mph - N/A   Clear
8:15 AM 70.0 °F - 59.0 °F 68% 30.01 in 10.0 mi South 10.4 mph - N/A   Scattered Clouds
8:35 AM 71.8 °F - 58.8 °F 64% 30.01 in 10.0 mi South 10.4 mph - N/A   Scattered Clouds
8:55 AM 73.2 °F - 59.2 °F 61% 30.01 in 10.0 mi South 11.5 mph - N/A   Clear
9:15 AM 74.1 °F - 58.5 °F 58% 30.00 in 10.0 mi South 13.8 mph - N/A   Clear
9:35 AM 76.3 °F - 59.0 °F 55% 30.01 in 10.0 mi South 12.7 mph 18.4 mph N/A   Scattered Clouds
9:55 AM 77.4 °F - 58.5 °F 52% 30.00 in 10.0 mi South 12.7 mph 17.3 mph N/A   Mostly Cloudy
10:15 AM 77.9 °F - 58.6 °F 51% 29.99 in 10.0 mi South 17.3 mph - N/A   Scattered Clouds
10:35 AM 78.8 °F - 59.2 °F 51% 29.99 in 10.0 mi SSE 16.1 mph 19.6 mph N/A   Clear
10:55 AM 80.1 °F 81.0 °F 60.3 °F 51% 29.99 in 10.0 mi South 13.8 mph - N/A   Clear
11:15 AM 81.0 °F 81.5 °F 59.4 °F 48% 29.99 in 10.0 mi South 13.8 mph 19.6 mph N/A   Clear
11:35 AM 82.2 °F 82.4 °F 59.4 °F 46% 29.99 in 10.0 mi South 15.0 mph 18.4 mph N/A   Clear
11:55 AM 82.6 °F 82.6 °F 59.5 °F 45% 29.98 in 10.0 mi South 15.0 mph 20.7 mph N/A   Clear
12:15 PM 83.1 °F 83.0 °F 59.4 °F 44% 29.97 in 10.0 mi South 16.1 mph 23.0 mph N/A   Clear
12:35 PM 83.5 °F 83.2 °F 58.8 °F 43% 29.97 in 10.0 mi South 18.4 mph 21.9 mph N/A   Clear
1:15 PM 84.4 °F 84.0 °F 58.6 °F 42% 29.96 in 10.0 mi South 17.3 mph 23.0 mph N/A   Clear
1:35 PM 85.3 °F 84.3 °F 56.7 °F 38% 29.96 in 10.0 mi South 17.3 mph 20.7 mph N/A   Clear
1:55 PM 86.0 °F 85.0 °F 57.4 °F 38% 29.96 in 10.0 mi South 16.1 mph 21.9 mph N/A   Clear
2:15 PM 86.0 °F 85.4 °F 59.0 °F 40% 29.95 in 10.0 mi SSE 16.1 mph 24.2 mph N/A   Clear
2:35 PM 86.0 °F 85.7 °F 59.7 °F 41% 29.95 in 10.0 mi SSE 18.4 mph 26.5 mph N/A   Clear
2:55 PM 85.3 °F 85.0 °F 59.5 °F 42% 29.95 in 10.0 mi SSE 17.3 mph 24.2 mph N/A   Clear
3:15 PM 84.2 °F 84.0 °F 59.4 °F 43% 29.95 in 10.0 mi SSE 20.7 mph 24.2 mph N/A   Clear
3:35 PM 84.7 °F 84.6 °F 59.9 °F 43% 29.94 in 10.0 mi SSE 17.3 mph 25.3 mph N/A   Clear
3:55 PM 85.1 °F 84.8 °F 59.9 °F 42% 29.94 in 10.0 mi SSE 16.1 mph 21.9 mph N/A   Clear
4:15 PM 85.6 °F 85.7 °F 60.8 °F 43% 29.94 in 10.0 mi SSE 15.0 mph 24.2 mph N/A   Clear
4:35 PM 83.3 °F 83.4 °F 60.1 °F 45% 29.94 in 10.0 mi SSE 19.6 mph 24.2 mph N/A   Clear
4:55 PM 83.5 °F 83.6 °F 60.1 °F 45% 29.94 in 10.0 mi SSE 18.4 mph 27.6 mph N/A   Clear
5:15 PM 84.6 °F 84.8 °F 61.0 °F 45% 29.94 in 10.0 mi South 19.6 mph - N/A   Clear
5:35 PM 82.8 °F 83.1 °F 60.4 °F 47% 29.94 in 10.0 mi SSE 17.3 mph 23.0 mph N/A   Clear
5:55 PM 81.9 °F 82.5 °F 60.8 °F 49% 29.93 in 10.0 mi SSE 16.1 mph - N/A   Clear
6:15 PM 81.5 °F 82.1 °F 60.6 °F 49% 29.93 in 10.0 mi South 11.5 mph - N/A   Clear
6:35 PM 81.5 °F 82.0 °F 60.3 °F 48% 29.93 in 10.0 mi SSE 12.7 mph 19.6 mph N/A   Clear
6:55 PM 81.0 °F 81.6 °F 59.9 °F 49% 29.93 in 10.0 mi SSE 12.7 mph 17.3 mph N/A   Clear
7:15 PM 81.0 °F 81.5 °F 59.4 °F 48% 29.93 in 10.0 mi SSE 12.7 mph - N/A   Clear
7:35 PM 81.9 °F 82.3 °F 60.4 °F 48% 29.93 in 10.0 mi SSE 11.5 mph - N/A   Clear
7:55 PM 81.3 °F 81.8 °F 59.9 °F 48% 29.93 in 10.0 mi SSE 12.7 mph - N/A   Clear
8:15 PM 80.6 °F 81.2 °F 59.9 °F 49% 29.94 in 10.0 mi SSE 15.0 mph - N/A   Clear
8:35 PM 78.4 °F - 60.3 °F 53% 29.94 in 10.0 mi SSE 11.5 mph - N/A   Clear
8:55 PM 77.5 °F - 59.9 °F 54% 29.94 in 10.0 mi SSE 11.5 mph - N/A   Clear
9:15 PM 75.7 °F - 60.1 °F 58% 29.94 in 10.0 mi SSE 9.2 mph - N/A   Clear
9:35 PM 75.2 °F - 60.6 °F 60% 29.94 in 10.0 mi SSE 9.2 mph - N/A   Clear
9:55 PM 73.6 °F - 61.0 °F 65% 29.94 in 10.0 mi SSE 9.2 mph - N/A   Clear
10:15 PM 73.2 °F - 60.8 °F 65% 29.95 in 10.0 mi SSE 8.1 mph - N/A   Clear
10:35 PM 73.0 °F - 60.3 °F 64% 29.95 in 10.0 mi SSE 10.4 mph - N/A   Clear
10:55 PM 73.0 °F - 60.3 °F 64% 29.96 in 10.0 mi SSE 10.4 mph - N/A   Clear
11:15 PM 71.4 °F - 60.4 °F 68% 29.95 in 10.0 mi SSE 9.2 mph - N/A   Clear
11:35 PM 71.1 °F - 60.3 °F 69% 29.96 in 10.0 mi SSE 10.4 mph - N/A   Clear
11:55 PM 72.0 °F - 60.1 °F 66% 29.96 in 10.0 mi SSE 10.4 mph - N/A   Clear